www.pogodaiklimat.ru

Погода и климат >> Архив погоды >> Турция >> Маниса


ПОГОДА в Манисе

  • Прогноз погоды в Манисе
  • Монитор погоды в Манисе

АРХИВ ПОГОДЫ в Манисе

Время (UTC), дата Ветер
(напр.,м/с)
 
Видим.   Явления Облачность Т
(С)
Тd
(С)
f
(%)
Тe
(С)
Тes
(С)
Комфортность P
(гПа)
Po
(гПа)
Тmin
(С)
Tmax
(С)
R
(мм)
R24
(мм)
S
(см)
04 8.09 штиль 0 20 км ясно +18.3 +14.0 76 +19 +19 1011.8 1003.6
05 8.09 штиль 0 20 км ясно +20.1 +14.7 71 +22 +23 комфорт 1012.1 1003.9
06 8.09 С 1
{1}
20 км ясно +21.9 +14.8 64 +25 +30 комфорт 1012.4 1004.2 +18.3
07 8.09 штиль 0 20 км ясно +23.9 +15.2 58 +27 +36 жарко 1012.4 1004.3
08 8.09 СВ 1 20 км ясно +25.9 +14.0 48 +28 +41 жарко 1012.1 1004.0
09 8.09 СВ 1
{3}
20 км ясно +26.9 +13.9 45 +29 +46 жарко 1011.7 1003.6
10 8.09 В 1 20 км ясно +29.9 +13.5 37 +31 +50 жарко 1011.3 1003.2
11 8.09 штиль 0 20 км ясно +30.6 +12.8 34 +32 +51 опасность
солнечного
удара
1010.8 1002.7
12 8.09 штиль 0
{3}
20 км ясно +32.1 +12.7 31 +33 +49 жарко 1010.3 1002.2
13 8.09 штиль 0 20 км ясно +32.4 +12.5 30 +33 +44 жарко 1009.8 1001.7
14 8.09 СВ 1 20 км ясно +32.6 +12.1 29 +33 +39 жарко 1009.7 1001.6
15 8.09 СВ 2
{5}
20 км ясно +31.3 +13.0 33 +32 +34 жарко 1009.9 1001.8
16 8.09 С 1 20 км ясно +29.6 +13.3 37 +31 +31 жарко 1010.5 1002.3
17 8.09 штиль 0 20 км ясно +27.7 +14.3 44 +30 +30 жарко 1011.3 1003.1
18 8.09 В 1
{5}
20 км ясно +27.1 +14.8 47 +30 +30 душно 1012.1 1003.9 +33.6
19 8.09 В 1 20 км ясно +26.3 +14.1 47 +29 +29 жарко 1012.2 1004.1
20 8.09 В 2 20 км ясно +25.5 +13.7 48 +28 +28 жарко 1012.4 1004.3
21 8.09 В 1
{4}
20 км ясно +24.5 +14.0 52 +27 +27 жарко 1012.4 1004.3
23 8.09 В 1 20 км ясно +23.6 +13.2 52 +26 +26 жарко 1011.7 1003.6
00 9.09 В 1
{4}
20 км ясно +23.5 +13.4 53 +26 +26 жарко 1011.4 1003.3
01 9.09 В 1 20 км ясно +23.0 +13.2 54 +26 +26 жарко 1011.2 1003.1
02 9.09 штиль 0 20 км ясно +21.5 +13.5 60 +24 +24 комфорт 1011.0 1002.9
03 9.09 штиль 0
{3}
20 км ясно +21.0 +13.5 62 +23 +23 комфорт 1011.1 1003.0
04 9.09 СВ 1 20 км ясно +22.1 +11.8 52 +24 +24 комфорт 1011.5 1003.4
05 9.09 штиль 0 20 км ясно +20.2 +13.0 63 +22 +23 комфорт 1011.9 1003.7
06 9.09 В 1
{4}
20 км ясно +23.6 +12.2 49 +25 +30 комфорт 1011.9 1003.8 +19.5
07 9.09 СВ 2 20 км ясно +24.4 +12.3 47 +26 +34 жарко 1012.0 1003.9
08 9.09 В 2 20 км ясно +24.6 +13.8 51 +27 +38 жарко 1011.7 1003.6
09 9.09 СВ 1
{4}
20 км ясно +27.1 +14.1 45 +29 +47 жарко 1011.0 1002.9
10 9.09 штиль 0 20 км ясно +28.7 +12.9 38 +30 +50 жарко 1010.4 1002.3
11 9.09 Ю 1 20 км ясно +30.4 +11.7 32 +31 +49 жарко 1010.1 1002.0
12 9.09 В 1
{4}
20 км ясно +31.7 +10.8 28 +32 +47 жарко 1009.3 1001.3
13 9.09 штиль 0 20 км ясно +32.0 +11.1 28 +32 +43 жарко 1008.8 1000.8
14 9.09 штиль 0 20 км ясно +32.5 +10.4 26 +32 +38 жарко 1008.4 1000.3
15 9.09 С 2
{4}
20 км ясно +31.9 +8.7 24 +31 +33 жарко 1008.4 1000.3
16 9.09 СВ 1 20 км ясно +29.5 +10.9 32 +30 +30 жарко 1008.7 1000.6
17 9.09 СВ 1 20 км ясно +27.4 +12.9 41 +29 +29 жарко 1009.5 1001.3
18 9.09 В 1
{4}
20 км ясно +26.6 +13.7 45 +29 +29 жарко 1010.1 1002.0 +33.6
19 9.09 В 1 20 км ясно +26.1 +14.2 48 +28 +28 жарко 1010.5 1002.4
20 9.09 В 1 20 км ясно +25.1 +14.3 51 +28 +28 жарко 1010.6 1002.5
21 9.09 З 1
{3}
20 км ясно +24.2 +14.6 55 +27 +27 жарко 1010.7 1002.6
22 9.09 штиль 0 20 км ясно +21.7 +14.4 63 +25 +25 комфорт 1010.3 1002.2
23 9.09 СВ 1 20 км ясно +23.1 +14.2 57 +27 +27 душно 1010.2 1002.1
00 10.09 штиль 0
{3}
20 км ясно +21.1 +14.6 66 +24 +24 комфорт 1010.2 1002.1
01 10.09 штиль 0 20 км ясно +19.4 +13.8 70 +21 +21 комфорт 1010.1 1002.0
02 10.09 штиль 0 20 км ясно +18.8 +14.1 74 +20 +20 1010.0 1001.9
03 10.09 штиль 0 20 км ясно +19.3 +14.4 73 +21 +21 комфорт 1010.1 1002.0
04 10.09 штиль 0 20 км ясно +18.6 +14.1 75 +19 +19 1010.2 1002.0
05 10.09 штиль 0 20 км ясно +18.9 +14.0 73 +20 +21 1010.6 1002.4
06 10.09 СВ 1
{2}
20 км 1/0
[Ci fib]
+22.2 +15.4 65 +26 +30 душно 1010.9 1002.7 +18.4
07 10.09 СВ 1 20 км 3/0
[Ci fib]
+23.8 +14.8 57 +27 +34 жарко 1011.0 1002.9
08 10.09 СВ 1 20 км 3/0
[Ci fib]
+25.7 +15.1 52 +29 +40 душно 1010.8 1002.7
09 10.09 В 1
{4}
20 км 3/0
[Ci fib]
+27.6 +15.3 47 +30 +46 жарко 1010.3 1002.2
10 10.09 В 1 20 км 1/0
[Ci fib]
+28.5 +14.7 43 +31 +49 душно 1009.8 1001.7
11 10.09 СВ 1 20 км ясно +30.4 +14.4 38 +32 +50 жарко 1009.3 1001.2
13 10.09 СВ 1 20 км ясно +31.5 +14.1 35 +33 +43 жарко 1008.4 1000.3
14 10.09 С 1 20 км ясно +31.9 +14.0 34 +33 +39 жарко 1008.1 1000.0
15 10.09 СВ 1
{3}
20 км ясно +31.7 +13.3 33 +33 +35 жарко 1008.1 1000.0
16 10.09 СВ 1 20 км ясно +29.7 +13.8 38 +31 +32 жарко 1008.5 1000.4
17 10.09 В 1 20 км ясно +28.3 +15.2 45 +31 +31 душно 1009.2 1001.0
18 10.09 В 1
{4}
20 км ясно +26.7 +16.4 53 +30 +30 душно 1010.0 1001.9 +33.1
19 10.09 В 1 20 км ясно +26.1 +16.4 55 +30 +30 душно 1010.5 1002.4
20 10.09 В 1 20 км ясно +25.4 +16.6 58 +29 +29 душно 1010.5 1002.4
21 10.09 СВ 1
{3}
20 км ясно +25.5 +16.4 57 +29 +29 душно 1010.5 1002.4
22 10.09 штиль 0 20 км ясно +25.4 +16.6 58 +29 +29 душно 1010.6 1002.5
23 10.09 штиль 0 20 км ясно +22.7 +16.5 68 +27 +27 душно 1010.9 1002.8
00 11.09 штиль 0
{3}
20 км ясно +21.9 +16.2 70 +26 +26 душно 1010.7 1002.6
01 11.09 штиль 0 20 км ясно +20.9 +15.9 73 +24 +24 комфорт 1010.8 1002.7
02 11.09 штиль 0 20 км ясно +20.2 +16.0 77 +23 +23 комфорт 1011.1 1003.0
03 11.09 штиль 0 20 км ясно +19.9 +16.1 79 +22 +22 комфорт 1011.3 1003.2
04 11.09 С 1 20 км ясно +20.8 +16.0 74 +26 +26 душно 1011.7 1003.6
05 11.09 штиль 0 20 км 5/0
[Ac trans]
+20.3 +15.9 76 +23 +24 комфорт 1012.4 1004.2
06 11.09 С 1
{2}
20 км 3/0
[Ac trans]
+22.9 +16.7 68 +28 +31 душно 1012.8 1004.6 +19.7
07 11.09 В 1 20 км 3/0
[Ac trans]
+24.5 +16.6 61 +28 +35 душно 1013.0 1004.9
08 11.09 СВ 1 20 км 3/0
[Ac trans]
+26.5 +17.4 57 +31 +41 душно 1013.2 1005.1
09 11.09 СВ 1
{4}
20 км ясно +27.5 +17.1 53 +31 +48 душно 1013.1 1005.0
10 11.09 СВ 1 20 км ясно +29.4 +17.3 48 +33 +52 опасность
солнечного
удара
1012.9 1004.8
11 11.09 В 1 20 км ясно +30.3 +15.5 41 +33 +51 опасность
солнечного
удара
1012.3 1004.2
12 11.09 С 1
{4}
20 км ясно +31.6 +15.5 38 +34 +49 душно 1012.1 1004.0
13 11.09 З 1 20 км ясно +33.0 +14.5 33 +35 +45 душно 1011.8 1003.7
14 11.09 З 1 20 км ясно +33.4 +15.8 35 +36 +42 очень
душно
1011.7 1003.6
15 11.09 З 1
{3}
20 км ясно +31.7 +17.2 42 +35 +37 очень
душно
1011.9 1003.8
16 11.09 З 1 20 км ясно +30.1 +16.8 45 +34 +34 очень
душно
1012.3 1004.2
17 11.09 штиль 0 20 км ясно +28.4 +16.7 49 +32 +32 душно 1012.9 1004.7
18 11.09 В 1
{4}
20 км ясно +27.4 +16.7 52 +31 +31 душно 1013.9 1005.7 +34.3
19 11.09 СВ 1 20 км ясно +26.7 +17.0 55 +30 +30 душно 1014.2 1006.1
20 11.09 В 1 20 км ясно +26.3 +17.2 57 +30 +30 душно 1014.4 1006.3
21 11.09 В 1
{4}
20 км ясно +25.8 +16.4 56 +29 +29 душно 1014.5 1006.4
22 11.09 СВ 1 20 км ясно +25.0 +16.5 59 +28 +28 жарко 1014.3 1006.2
23 11.09 В 1 20 км ясно +24.9 +16.1 58 +28 +28 жарко 1014.3 1006.2
00 12.09 З 1
{4}
20 км ясно +22.8 +16.4 67 +27 +27 душно 1014.2 1006.1
01 12.09 штиль 0 20 км ясно +21.9 +16.0 69 +26 +26 душно 1014.3 1006.2
02 12.09 штиль 0 20 км ясно +21.2 +15.8 71 +24 +24 комфорт 1014.8 1006.7
03 12.09 З 1
{2}
20 км ясно +21.7 +15.8 69 +25 +25 комфорт 1014.8 1006.7
04 12.09 штиль 0 20 км ясно +20.7 +15.7 73 +24 +24 комфорт 1014.7 1006.5
05 12.09 штиль 0 20 км 1/0
[Ci fib]
+21.7 +16.3 71 +25 +27 комфорт 1015.0 1006.8
06 12.09 В 1
{3}
20 км 4/4 1110 м
[Cu med, cong]
+23.7 +16.1 62 +27 +29 жарко 1015.6 1007.4 +20.5
07 12.09 СВ 2 20 км 3/3 1000 м
[Cu hum]
+24.9 +16.4 59 +28 +33 жарко 1015.8 1007.6
08 12.09 СВ 1 20 км 3/3 1000 м
[Cu hum]
+26.1 +16.7 56 +30 +39 душно 1015.8 1007.7
09 12.09 штиль 0
{4}
20 км 3/3 1110 м
[Cu hum]
+27.7 +16.7 51 +31 +44 душно 1015.6 1007.5
10 12.09 СЗ 1 20 км 3/3 1000 м
[Cu hum]
+28.4 +16.7 49 +32 +45 душно 1015.3 1007.2
11 12.09 штиль 0 20 км 3/3 1000 м
[Cu hum]
+30.6 +16.6 43 +34 +47 очень
душно
1014.7 1006.6
12 12.09 С 1
{4}
20 км 3/3 1110 м
[Cu hum]
+31.2 +16.7 42 +35 +45 очень
душно
1014.0 1005.9
13 12.09 штиль 0 20 км 1/1 1000 м
[Cu hum]
+32.6 +15.9 37 +35 +45 душно 1013.4 1005.3
14 12.09 С 1 20 км 1/1 1000 м
[Cu hum]
+32.1 +15.5 37 +35 +40 очень
душно
1012.9 1004.8
15 12.09 СВ 2
{4}
20 км 1/1 1110 м
[Cu hum]
+30.3 +13.9 37 +32 +34 жарко 1013.2 1005.1
16 12.09 СВ 1 20 км 3/3 1000 м
[Cu hum]
+28.3 +14.5 43 +31 +31 душно 1013.8 1005.6
17 12.09 В 1 20 км 3/3 1000 м
[Cu hum]
+27.0 +15.0 48 +30 +30 душно 1014.6 1006.4
18 12.09 В 1
{5}
20 км 4/3 1200 м
[Cu hum Ac trans]
+26.0 +15.1 51 +29 +29 душно 1015.2 1007.0 +32.8
19 12.09 СВ 1 20 км 4/3 1000 м
[Cu hum Ac trans]
+25.4 +15.2 53 +28 +28 жарко 1015.5 1007.3
20 12.09 СВ 1 20 км 4/3 1000 м
[Cu hum Ac trans]
+24.8 +14.6 53 +27 +27 жарко 1015.1 1006.9
21 12.09 В 1
{3}
20 км 4/3 1200 м
[Cu hum Ac trans]
+24.7 +14.8 54 +27 +27 жарко 1014.9 1006.8
22 12.09 В 1 20 км 4/3 1000 м
[Cu hum Ac trans]
+24.5 +15.5 57 +27 +27 жарко 1014.7 1006.6
23 12.09 В 1 20 км 3/3 1000 м
[Cu hum]
+24.1 +15.4 58 +27 +27 жарко 1014.4 1006.3
00 13.09 В 1
{4}
20 км 3/3 1200 м
[Cu hum]
+24.0 +15.3 58 +27 +27 жарко 1013.9 1005.8
01 13.09 В 1 20 км 3/3 1000 м
[Cu hum]
+23.6 +14.6 57 +26 +26 жарко 1013.7 1005.6
02 13.09 В 1 20 км 3/3 1000 м
[Cu hum]
+23.5 +15.1 59 +26 +26 жарко 1013.3 1005.2
03 13.09 В 1
{4}
20 км 6/4 1110 м
[Cu med, cong Ac und]
+23.2 +14.8 59 +27 +27 душно 1013.4 1005.3
04 13.09 В 1 15 км гроза без осадков 9/6 1000 м
[Cb cap Ac As]
+23.2 +14.3 57 +27 +27 душно 1013.6 1005.5
05 13.09 В 2 15 км гроза без осадков 9/6 1000 м
[Cb cap Ac As]
+23.2 +13.4 54 +26 +27 жарко 1013.9 1005.7
06 13.09 В 1
{5}
10 км гроза, ливневой дождь 9/6 1000 м
[Cb cap Ac As]
+19.0 +16.0 83 +21 +22 комфорт 1014.4 1006.2 +18.9 7
07 13.09 В 3 10 км гроза, ливневой дождь 9/6 600 м
[Cb cap Ac As]
+20.9 +15.3 70 +24 +25 комфорт 1014.5 1006.3
08 13.09 В 1 10 км гроза, ливневой дождь 9/6 600 м
[Cb cap Ac As]
+21.2 +15.1 68 +24 +26 комфорт 1015.2 1007.0
09 13.09 В 1
{6}
20 км в посл. час гроза 9/5 1110 м
[Cu med, cong Ac As]
+20.9 +15.9 73 +25 +29 комфорт 1015.2 1007.0
10 13.09 В 1 10 км слаб. ливневой дождь 9/5 1000 м
[Cu med, cong Ac As]
+21.3 +16.3 73 +25 +28 комфорт 1015.6 1007.4
11 13.09 В 1 10 км слаб. ливневой дождь 9/5 1000 м
[Cu med, cong Ac As]
+20.1 +17.3 84 +25 +28 комфорт 1015.5 1007.2
12 13.09 штиль 0
{6}
20 км в посл. час ливневой дождь {гроза} 9/5 1110 м
[Cu med, cong Ac As]
+20.1 +18.0 88 +23 +26 комфорт 1014.3 1006.1 5
13 13.09 штиль 0 20 км 9/5 1000 м
[Cu med, cong Ac As]
+20.5 +18.2 87 +24 +26 комфорт 1014.1 1005.9
14 13.09 штиль 0 20 км 8/5 1000 м
[Cu med, cong Ac As]
+21.9 +18.9 83 +27 +29 душно 1013.9 1005.7
15 13.09 штиль 0
{2}
20 км в посл. час ливневой дождь 9/5 1110 м
[Cu med, cong Ac As]
+21.6 +19.1 86 +27 +27 душно 1013.9 1005.7
16 13.09 штиль 0 20 км в посл. час гроза 9/5 1000 м
[Cu med, cong Ac As]
+20.9 +19.8 93 +25 +25 комфорт 1013.6 1005.4
17 13.09 В 1 20 км 9/5 1000 м
[Cu med, cong Ac As]
+20.4 +18.5 89 +26 +26 душно 1014.2 1005.9
18 13.09 В 1
{4}
20 км {гроза, ливн. осадки} 9/5 1110 м
[Cu med, cong Ac As]
+21.1 +15.7 71 +24 +24 комфорт 1015.3 1007.0 +22.2 11
19 13.09 В 1 20 км 9/5 1000 м
[Cu med, cong Ac As]
+22.9 +10.9 47 +25 +25 комфорт 1015.6 1007.3
20 13.09 В 2 20 км 9/5 1000 м
[Cu med, cong Ac As]
+23.3 +9.2 41 +25 +25 комфорт 1016.0 1007.7
21 13.09 В 1
{5}
20 км 9/5 1110 м
[Cu med, cong Ac As]
+22.5 +9.6 44 +24 +24 комфорт 1015.8 1007.5
22 13.09 В 1 20 км 9/5 1000 м
[Cu med, cong Ac As]
+22.2 +10.6 48 +24 +24 комфорт 1015.6 1007.3
23 13.09 В 1 20 км 9/5 1000 м
[Cu med, cong Ac As]
+22.0 +11.1 50 +24 +24 комфорт 1015.6 1007.3
00 14.09 В 1
{5}
20 км 8/5 1110 м
[Cu med, cong Ac As]
+21.5 +10.9 51 +23 +23 комфорт 1015.3 1007.0
01 14.09 В 1 20 км 6/4 1000 м
[Cu med, cong Ac trans]
+21.4 +10.5 50 +23 +23 комфорт 1015.3 1007.0
02 14.09 В 2 20 км 6/4 1000 м
[Cu med, cong Ac trans]
+21.4 +10.8 51 +23 +23 комфорт 1015.4 1007.1
03 14.09 В 1
{4}
20 км 4/4 1110 м
[Cu med, cong]
+21.2 +11.0 52 +23 +23 комфорт 1015.5 1007.2
04 14.09 В 2 20 км 4/4 1000 м
[Cu med, cong]
+21.0 +11.6 55 +24 +24 комфорт 1015.5 1007.2
05 14.09 В 1 20 км ясно +20.9 +12.4 58 +24 +25 комфорт 1016.0 1007.7
06 14.09 В 1
{5}
20 км ясно +22.0 +12.3 54 +24 +28 комфорт 1016.3 1008.0 +20.0
07 14.09 В 2 20 км ясно +23.5 +12.8 51 +26 +32 жарко 1016.1 1007.9
08 14.09 СВ 2 20 км ясно +24.6 +12.2 46 +26 +36 жарко 1015.6 1007.4
09 14.09 СВ 2
{7}
20 км 3/3 1050 м
[Cu med, cong]
+25.4 +11.8 43 +27 +37 жарко 1015.2 1007.0
10 14.09 СВ 1 20 км 3/3 1000 м
[Cu med, cong]
+27.1 +12.2 40 +29 +40 жарко 1014.7 1006.5
11 14.09 СВ 2 20 км 1/1 1000 м
[Cu hum]
+28.2 +11.6 36 +29 +41 жарко 1014.3 1006.1
12 14.09 СВ 2
{7}
20 км 1/1 1110 м
[Cu hum]
+29.1 +11.5 34 +30 +40 жарко 1013.6 1005.5
13 14.09 СВ 3 20 км 1/1 1000 м
[Cu hum]
+29.2 +12.1 35 +30 +37 жарко 1013.0 1004.9
14 14.09 СВ 2 20 км 1/1 1000 м
[Cu hum]
+29.3 +11.7 34 +30 +34 жарко 1012.7 1004.6
15 14.09 СВ 2
{6}
20 км 1/1 1110 м
[Cu hum]
+28.1 +11.1 35 +29 +30 жарко 1013.0 1004.8
16 14.09 В 2 20 км ясно +26.5 +10.9 38 +27 +28 жарко 1013.6 1005.4
17 14.09 В 2 20 км ясно +25.5 +10.8 40 +27 +27 жарко 1014.5 1006.3
18 14.09 В 1
{7}
20 км ясно +24.6 +11.1 43 +26 +26 жарко 1015.4 1007.2 +29.8
19 14.09 В 1 20 км ясно +24.2 +10.8 43 +25 +25 комфорт 1015.8 1007.6
20 14.09 В 2 20 км ясно +23.6 +10.6 44 +25 +25 комфорт 1015.8 1007.6
21 14.09 В 1
{5}
20 км ясно +23.1 +10.1 44 +25 +25 комфорт 1015.8 1007.6
22 14.09 В 2 20 км ясно +22.9 +10.3 45 +25 +25 комфорт 1015.8 1007.6
23 14.09 В 1 20 км ясно +22.3 +10.7 48 +24 +24 комфорт 1015.8 1007.6
00 15.09 В 1
{5}
20 км ясно +21.7 +11.1 51 +24 +24 комфорт 1015.9 1007.7
01 15.09 В 2 20 км ясно +21.7 +11.1 51 +24 +24 комфорт 1015.5 1007.3
02 15.09 В 2 20 км ясно +21.5 +10.0 48 +23 +23 комфорт 1015.6 1007.4
03 15.09 В 2
{5}
20 км ясно +21.3 +9.8 48 +23 +23 комфорт 1016.0 1007.8
04 15.09 В 2 20 км ясно +21.1 +9.0 46 +22 +22 комфорт 1016.7 1008.5

 

Местоположение метеостанции Маниса (Турция): широта 38.62 долгота 27.43 высота над уровнем моря 71 м.

В архиве по умолчанию представлена погода в Манисе за последнюю неделю. Архивные данные за месяц целиком и за предыдущие месяцы, начиная с января 2011 года, Вы можете получить, выбрав интересующий диапазон дат из раскрывающегося списка и нажав кнопку "Ввод!".


*Определитесь, кто Вы:
робот инопланетянин человек

Внимание! Время в таблицах - всемирное. Для получения местного времени необходимо прибавить поправку, которая равна 2 ч.

Смотрите также архив погоды в соседних городах и на ближайших метеорологических станциях:

Погода в Измире (Турция) (31 км)
Погода в Измир / Сигли (Турция) (38 км)
Погода в Измир аэропорту (Турция) (46 км)
Погода в Акхисаре (Турция) (49 км)
Погода в Дикили (Турция) (68 км)
Погода в Кушадасы (Турция) (85 км)
Погода в Митилини (Греция) (88 км)
Погода в Айдыне (Турция) (93 км)
Погода в Айвалыке (Турция) (99 км)
Погода в Чешме (Турция) (105 км)

Пояснения к столбцам:

Ветер - указаны скорость ветра в м/с - средняя за 10 мин, порывы в срок и между сроками (в фигурных скобках) и направление, откуда дует ветер: С - северный, СВ - северо-восточный, В - восточный, ЮВ - юго-восточный, Ю - южный, ЮЗ - юго-западный, З - западный, СЗ - северо-западный.
Видимость - горизонтальная дальность видимости в метрах или километрах. При видимости от 1 до 10 км при отсутствии осадков обычно наблюдается дымка, при ухудшении видимости до 1 км и менее - туман. В сухую погоду видимость может ухудшаться дымом, пылью или мглою.
Явления - указаны атмосферные явления, наблюдавшиеся в срок или в последний час перед сроком; фигурными скобками обозначены явления, наблюдавшиеся между сроками (за 1-3 часа до срока); квадратными скобками обозначены град или гололедные отложения с указанием их диаметра в мм.
Облачность - указаны через наклонную черту общая и нижняя облачность в баллах и высота нижней границы облаков в метрах; квадратными скобками обозначены формы облаков: Ci - перистые, Cs - перисто-слоистые, Cc - перисто-кучевые, Ac - высококучевые, As - высокослоистые, Sc - слоисто-кучевые, Ns - слоисто-дождевые, Cu - кучевые, Cb - кучево-дождевые. Подробнее классификацию облаков см. в Атласе облаков (PDF).
T - Температура воздуха - температура, измеренная на высоте 2 м над землей.
Td - Температура точки росы - температура, при понижении до которой содержащийся в воздухе водяной пар достигнет насыщения.
f - Относительная влажность воздуха - влажноcть воздуха, измеренная на высоте 2 м над землей.
Te - Эффективная температура - температура, которую ощущает одетый по сезону человек в тени. Характеристика душности погоды. При расчете учитывается влияние влажности воздуха и скорости ветра на теплоощущения человека.
Tes - Эффективная температура на солнце - температура, которую ощущает человек, с поправкой на солнечный нагрев. Характеристика знойности погоды. Зависит от высоты солнца над горизонтом, облачности и скорости ветра. Ночью, в пасмурную погоду, а также при ветре 12 м/с и более поправка равна нулю.
P - Атмосферное давление - приведенное к уровню моря атмосферное давление.
Po - Атмосферное давление - измеренное на уровне метеостанции атмосферное давление.
Tmin - Минимальная температура - минимум температуры воздуха на высоте 2 м над землей.
Tmax - Максимальная температура - максимум температуры воздуха на высоте 2 м над землей.
R - Количество осадков - Количество выпавших осадков за период времени, мм. При наведении курсора мыши на число - период времени, за который выпало указанное количество осадков.
R24 - Количество осадков - Количество выпавших осадков за 24 часа, мм.
S - Снежный покров - Высота снежного покрова, см. При наведении курсора мыши на число - состояние снежного покрова и степень покрытия местности в баллах.